Weather Roundup
Issued by NWS

Home | Current Version | Previous Version | Graphics & Text | Print | Product List | Glossary Off
Versions: 1 2 3 4 5 6 7 8 9 10 11 12 13 14 15 16 17 18 19 20 21 22 23 24 25 26 27 28 29 30 31 32 33 34 35 36 37 38 39 40 41 42 43 44 45 46 47 48 49 50

000
NZUS93 KARX 211859
HRRWXR

CURRENT HOURLY OBSERVATIONS ACROSS
MUCH OF THE UPPER MISSISSIPPI VALLEY
NATIONAL WEATHER SERVICE LA CROSSE WI
100 PM CST SUN DEC 21 2014


...SOUTHEAST MINNESOTA...


CITY           SKY/WX    TMP DP  RH WIND       PRES   REMARKS
ROCHESTER      LGT RAIN  35  34  96 S20G30    29.82F FOG     WCI  24
ROCHESTER/MAYO CLOUDY    36  35  96 SE13G26   29.82F WCI  27
WINONA         CLOUDY    37  36  93 S6        29.89F FOG     WCI  33
AUSTIN         DRIZZLE   36  36 100 S16       29.80F WCI  26
ALBERT LEA     DRZL/FOG  36  36 100 S15G22    29.77F VSB 3/4 WCI  26
DODGE CENTER   CLOUDY    36  36 100 S20G26    29.80F FOG     WCI  25
PRESTON        CLOUDY    35  34  95 S20G26    29.85F FOG     WCI  24
OWATONNA       DRIZZLE   36  34  93 S14G21    29.78F WCI  27
FARIBAULT      CLOUDY    36  36 100 S13G18    29.78F FOG     WCI  27
$$

...ELSEWHERE IN MINNESOTA...


CITY           SKY/WX    TMP DP  RH WIND       PRES   REMARKS
MINNEAPOLIS    LGT RAIN  35  34  96 SE10      29.78F FOG     WCI  27
INTNL FALLS    CLOUDY    31  28  89 S8        29.72F WCI  23
DULUTH         LGT SNOW  31  29  92 SE10      29.77F FOG     WCI  22
RED WING       CLOUDY    37  36  93 S7        29.82F FOG     WCI  32
REDWOOD FALLS  MIX PCPN  35  34  96 SE7       29.71F FOG     WCI  29
MANKATO        CLOUDY    36  32  87 S10G17    29.75F WCI  28
WORTHINGTON    CLOUDY    36 -13  12 S16G22    29.68F VSB 1/2 WCI  26
FAIRMONT       CLOUDY    37  34  87 S14       29.73F WCI  29
$$

...SOUTHWEST WISCONSIN...


CITY           SKY/WX    TMP DP  RH WIND       PRES   REMARKS
LA CROSSE      CLOUDY    39  34  82 S15       29.90F HAZE    WCI  31
PRAIRIE DU CHI CLOUDY    39  33  77 S5        29.96F
BOSCOBEL       CLOUDY    39  33  79 S8        29.97F HAZE    WCI  33
LONE ROCK      NOT AVBL
PLATTEVILLE    CLOUDY    37  34  90 S14       29.99F WCI  28
FORT MC COY    CLOUDY    36  35  96 S8        29.94F FOG     WCI  29
CAMP DOUGLAS   CLOUDY    36  36 100 SE9       29.94F FOG     WCI  29
VIROQUA        CLOUDY    35  35 100 S12G18    29.92F WCI  26
WIS DELLS      NOT AVBL
$$

...ELSEWHERE IN WISCONSIN...


CITY           SKY/WX    TMP DP  RH WIND       PRES   REMARKS
MILWAUKEE      CLOUDY    36  29  75 S12       30.09F WCI  28
MADISON        CLOUDY    35  32  88 S15       30.02F FOG     WCI  25
GREEN BAY      CLOUDY    34  31  88 S7        30.04F FOG     WCI  28
EAU CLAIRE     CLOUDY    34  32  92 S14       29.86F FOG     WCI  25
BLACK RVR FLS  MIX PCPN  35  35 100 S5        29.91F WCI  31
MEDFORD        SNOW      31  31  99 S12       29.90F VSB 1/2 WCI  22
WAUSAU         LGT SNOW  32  31  96 SE12      29.93F FOG     WCI  23
WIS RAPIDS     CLOUDY    34  31  88 S9        29.96F FOG     WCI  27
MARSHFIELD     FOG       33  31  92 S10       29.91F VSB 1/4 WCI  25
RICE LAKE      LGT SNOW  32  32  99 SE10      29.86F VSB 1   WCI  24
$$

...NORTHEAST IOWA...


CITY           SKY/WX    TMP DP  RH WIND       PRES   REMARKS
DECORAH        CLOUDY    37  36  93 S13G22    29.88F FOG     WCI  29
MASON CITY     CLOUDY    37  35  92 S16       29.82F FOG     WCI  28
CHARLES CITY   CLOUDY    37  37 100 S22G35    29.86F FOG     WCI  27
OELWEIN        CLOUDY    37  36  93 S23       29.91F FOG     WCI  26
$$

...ELSEWHERE IN IOWA...


CITY           SKY/WX    TMP DP  RH WIND       PRES   REMARKS
DES MOINES     CLOUDY    41  35  79 S15G30    29.87F
IOWA CITY      CLOUDY    40  35  83 SE13      29.98F WCI  32
FORT DODGE     CLOUDY    37  34  87 S17G25    29.80F WCI  28
$$

...NORTHERN ILLINOIS...


CITY           SKY/WX    TMP DP  RH WIND       PRES   REMARKS
CHICAGO-OHARE  CLOUDY    36  29  75 S13       30.11F WCI  27
CHICAGO-MIDWAY CLOUDY    37  28  70 S13G21    30.13F WCI  29
MOLINE         CLOUDY    41  34  76 S10       30.01F
ROCKFORD       CLOUDY    37  32  82 S14       30.08F HAZE    WCI  28
PEORIA         CLOUDY    40  31  70 S15G24    30.08F WCI  32
$$

NOTE: "FAIR" INDICATES FEW OR NO CLOUDS BELOW 12,000 FEET WITH NO
SIGNIFICANT WEATHER AND/OR OBSTRUCTIONS TO VISIBILITY. WIND
SPEEDS ARE IN MILES-PER-HOUR.



USA.gov is the U.S. government's official web portal to all federal, state and local government web resources and services.